Crystal River Weather Center

Moon Phase Calendar



Online Cameras

 


      

Current Conditions in Crystal River
5/19/2022 4:57:01 AM

70°F
Feels Like 71
Mist
Humidity
94%
Pressure
29.97"
Wind
0
Dew Point
68°F
UV Index
0/10 (Low)
Visibility
3 mi

Hourly Forecast

Date & Time Thu, May 19
4:00 AM
Thu, May 19
5:00 AM
Thu, May 19
6:00 AM
Thu, May 19
7:00 AM
Thu, May 19
8:00 AM
Thu, May 19
9:00 AM
Thu, May 19
10:00 AM
Thu, May 19
11:00 AM
Thu, May 19
12:00 PM
Thu, May 19
1:00 PM
Thu, May 19
2:00 PM
Thu, May 19
3:00 PM
Thu, May 19
4:00 PM
Thu, May 19
5:00 PM
Thu, May 19
6:00 PM
Thu, May 19
7:00 PM
Thu, May 19
8:00 PM
Thu, May 19
9:00 PM
Thu, May 19
10:00 PM
Thu, May 19
11:00 PM
Fri, May 20
12:00 AM
Fri, May 20
1:00 AM
Fri, May 20
2:00 AM
Fri, May 20
3:00 AM
Fri, May 20
4:00 AM
Fri, May 20
5:00 AM
Fri, May 20
6:00 AM
Fri, May 20
7:00 AM
Fri, May 20
8:00 AM
Fri, May 20
9:00 AM
Fri, May 20
10:00 AM
Fri, May 20
11:00 AM
Fri, May 20
12:00 PM
Fri, May 20
1:00 PM
Fri, May 20
2:00 PM
Fri, May 20
3:00 PM
Fri, May 20
4:00 PM
Fri, May 20
5:00 PM
Fri, May 20
6:00 PM
Fri, May 20
7:00 PM
Fri, May 20
8:00 PM
Fri, May 20
9:00 PM
Fri, May 20
10:00 PM
Fri, May 20
11:00 PM
Sat, May 21
12:00 AM
Sat, May 21
1:00 AM
Sat, May 21
2:00 AM
Sat, May 21
3:00 AM
Condition
Clear

Clear

Clear

Clear

Clear

Clouds

Clouds

Clouds

Clouds

Clouds

Clouds

Clouds

Clouds

Clouds

Clouds

Clouds

Clouds

Clouds

Clouds

Clouds

Clouds

Clouds

Clouds

Clouds

Clouds

Clouds

Clouds

Clouds

Clouds

Clouds

Clouds

Clouds

Clouds

Clouds

Clouds

Clouds

Rain

Rain

Rain

Rain

Rain

Rain

Rain

Clouds

Clouds

Clouds

Clouds

Clouds
Temperature 71°F70°F71°F72°F75°F78°F82°F84°F85°F85°F86°F85°F84°F84°F83°F81°F80°F78°F78°F77°F77°F77°F76°F76°F76°F76°F76°F76°F79°F82°F84°F86°F87°F88°F88°F87°F83°F82°F81°F76°F71°F72°F73°F73°F73°F73°F73°F73°F
Feels Like 72°F71°F72°F73°F76°F79°F85°F87°F88°F88°F88°F88°F86°F86°F85°F84°F80°F79°F79°F78°F78°F77°F77°F77°F77°F77°F77°F77°F79°F84°F87°F89°F91°F92°F93°F92°F87°F87°F85°F77°F73°F73°F74°F74°F74°F74°F74°F74°F
Cloudiness 4%0%3%6%8%70%94%96%97%98%98%100%100%100%100%100%96%100%100%100%100%99%99%100%100%100%100%98%96%62%38%32%27%27%32%98%99%99%98%98%99%100%100%100%100%100%100%100%
Visibility 6 mi6 mi6 mi6 mi6 mi6 mi6 mi6 mi6 mi6 mi6 mi6 mi6 mi6 mi6 mi6 mi6 mi6 mi6 mi6 mi6 mi6 mi6 mi6 mi6 mi6 mi6 mi6 mi6 mi6 mi6 mi6 mi6 mi6 mi6 mi6 mi6 mi6 mi6 mi4 mi1 mi3 mi6 mi6 mi6 mi6 mi6 mi6 mi
Precipitation 0%0%0%0%0%0%0%0%0%0%0%0%0%0%0%0%0%0%0%0%0%0%0%0%0%0%0%0%0%0%0%3%3%3%5%28%46%66%94%100%100%98%95%73%73%73%70%2%
Humidity 91%94%91%88%83%75%64%59%56%54%53%54%56%57%59%63%67%71%72%72%73%74%74%74%74%74%74%74%67%61%57%56%55%55%56%58%68%68%72%84%95%93%87%86%83%82%82%81%
Dew Point 68°F68°F68°F68°F69°F69°F69°F68°F67°F66°F66°F66°F66°F66°F67°F67°F68°F68°F68°F67°F67°F67°F67°F67°F67°F67°F67°F67°F67°F67°F67°F67°F68°F68°F69°F70°F70°F71°F71°F71°F70°F69°F69°F68°F68°F68°F67°F66°F
Pressure 29.97"29.97"29.97"29.97"30"30"30"30"30"30"29.97"29.97"29.94"29.94"29.91"29.91"29.91"29.94"29.94"29.94"29.97"29.97"29.94"29.94"29.94"29.94"29.97"30"30"30.03"30.03"30.03"30.03"30"30"30"29.97"30"30.03"30.06"30.03"30.15"30.12"30.12"30.09"30.09"30.09"30.06"
Wind Speed 4.8 mph3.4 mph3 mph3.2 mph3 mph3.3 mph5 mph6.5 mph9.4 mph10.6 mph12 mph12.5 mph12.9 mph13.6 mph13.2 mph12.5 mph9.8 mph8.2 mph7.8 mph5.5 mph5.5 mph5.7 mph6.6 mph6.6 mph6.5 mph5.5 mph7.1 mph6.4 mph6.5 mph8.5 mph8.8 mph9.7 mph10.3 mph10.7 mph12.9 mph17.8 mph17.4 mph19 mph16.6 mph16.1 mph17.6 mph16 mph7.3 mph8.9 mph12.6 mph14.7 mph12.5 mph10.4 mph
Wind
Direction
239°
WSW
247°
WSW
280°
W
313°
NW
315°
NW
283°
WNW
271°
W
256°
WSW
250°
WSW
253°
WSW
253°
WSW
254°
WSW
258°
WSW
260°
W
260°
W
267°
W
270°
W
266°
W
262°
W
234°
SW
208°
SSW
217°
SW
193°
SSW
187°
S
181°
S
185°
S
186°
S
187°
S
173°
S
183°
S
188°
S
204°
SSW
220°
SW
238°
WSW
244°
WSW
244°
WSW
227°
SW
195°
SSW
189°
S
236°
SW
200°
SSW
159°
SSE
128°
SE
146°
SE
183°
S
182°
S
178°
S
161°
SSE

Daily Forecast

Date High Low Precip. Humidity
Today
May 19

Rain
86 °F
70 °F
40%
54%
Friday
May 20

Rain
88 °F
71 °F
100%
55%
Saturday
May 21

Rain
83 °F
72 °F
96%
66%
Sunday
May 22

Rain
79 °F
71 °F
96%
81%
Monday
May 23

Rain
82 °F
72 °F
37%
56%
Tuesday
May 24

Rain
88 °F
73 °F
68%
50%
Wednesday
May 25

Rain
86 °F
73 °F
100%
58%
Thursday
May 26

Rain
84 °F
74 °F
100%
67%
Friday
May 27

Rain
87 °F
74 °F
83%
61%
Saturday
May 28

Rain
86 °F
76 °F
91%
61%
Sunday
May 29

Rain
85 °F
77 °F
94%
64%
Monday
May 30

Rain
86 °F
77 °F
20%
59%
Tuesday
May 31

Clouds
88 °F
78 °F
2%
52%
Wednesday
Jun 1

Clouds
90 °F
77 °F
0%
50%
Thursday
Jun 2

Clouds
90 °F
75 °F
0%
44%
Friday
Jun 3

Clouds
88 °F
74 °F
0%
51%

Temperature 8-14 Day Outlook



Precipitation 8-14 Day Outlook




Quick Links
Crystal River News
Crystal River Photos
Crystal River Videos




About Us
Contact Us
Site Map
Search Site
Advertise With Us
   
CrystalRiver.USGulf.info
THE CRYSTAL RIVER WEBSITE

Copyright 2022, Coastal Town
Privacy    |    Legal